DMSP 5D-2 F13 DEB

基本信息
目录编号:
42299
目录名称:
DMSP 5D-2 F13 DEB
国际标识:
1995-015HR
轨道中心:
EARTH
物体状态:
在轨
发射日期:
1995-03-24 UTC
轨道信息
数据来源: 国际轨道数据
星历时间: 2026-09-04T20:02:19+0800
半长轴: 6931.42km
偏心率: 0.0005625
轨道倾角: 98.692°
近地点辐角: 11.568°
升交点赤经: 342.254°
平近点角: 348.567°
近地点: 549.384km
远地点: 557.182km
周期: 95.718分钟
每日圈数: 15.044214
详细信息
发射场:
AFWTR
轨道高度:
LEO
数据来源:
AOE Integration Group
参考系:
TEME
时间系统:
UTC
历元类型:
SGP4
2D轨道图
3D轨道图
轨道高度分析图
轨道倾角分析图
轨道综合分析图
查看轨道综合分析图